STARLINK-32852, 62824

Orbit data source: Space-Track

STARLINK-32852, 62824 is a payload satellite owned by SpaceX/Seattle (US) in LEO that was launched on Fri, 24 Jan 2025 UTC via an FALCON 9 launch vehicle from the Air Force Western Test Range (AFWTR). Payload-class satellites include a variety of spacecraft equipped with specific instruments for various scientific and technological missions. These include communications satellites like Starlink; space stations such as the ISS; scientific satellites like the Hubble; Earth observation satellites from companies like Planet Labs, Umbra, and HawkEye 360; GPS; miniature CubeSats for education and research; and military/defense satellites.

Loading next visibility...
Identifier
62824, 2025-018U
Orbit
LEO
Last TLE update
8 hours ago
Origin
Manufacturer
SpaceX/Seattle
Mission
Operational Commercial Communications
Bus & Motor
STARLINK V2M, Unknown motor
Mass
730 kg wet, ~700 kg dry
Launch date (UTC)
2025-01-24 (5 months ago)
Launch vehicle
FALCON 9
Launch site
Air Force Western Test Range (AFWTR)
Object type
Payload
Rocket body
Debris
Shape & HBR
Box + 2 Pan, 29 m
Radar Cross Section
33.884 m², Large (>1 m²)

Expand to show TLE details & history

TLE from 8 hours ago
0 STARLINK-32852
1 62824U 25018U   25182.85798029  .00008921  00000-0  31296-3 0  9998
2 62824  53.1600  34.7783 0000939 104.6851 255.4254 15.30198098 24778
Epoch: 2025-07-01T20:35Z
TLE epoch observation values (Epoch: 2025-07-01T20:35:29.497Z)
Latitude
0.00001°
Longitude
165.758°
Altitude
476.282 km
Speed
7.629 km/s
True Right ascension
02h 19m 06s
True Declination
0° 00' 00"
Sunlit
Object was in daylight at epoch
Visualization orbit readout
Latitude
17.4433°
Longitude
177.76081°
Altitude
475.426 km
Speed
7.631 km/s
Apparent Right ascension
03h 35m 15s
Apparent Declination
-10° 09' 24"
Sunlit
Object is in daylight
Visualization observer readout
Local Sidereal Time
16:12:53
Azimuth
18.253° NNE
Elevation
-59.089°
Doppler factor
1
Orbital elements
Apogee altitude
476.121 km
Perigee altitude
474.834 km
Semi-major axis
6,853.614 km
Eccentricity
0.00009
Inclination
53.16°
RAAN
34.7783°
Arg. of periapsis
104.6851°
True anomaly
Unknown
Mean anomaly
255.4254°
Eccentric anomaly
Unknown
Mean motion
3.82528 °/min
Orbital period
94.11 mins
BSTAR
0.00031296
Loading maneuver chart data...
Loading SW <> Apogee altitude chart data...
Loading historical data...
Loading historical data...
Loading historical data...
Loading historical data...
Loading historical data...
Loading historical data...
Loading historical data...

STARLINK-32852 Visibility forecast

Observer location: undefined°, undefined°

Span
Click to sort rows by Start time (UTC) header in descending order
Start Az.
Max El. time (UTC)
Max El. Az.
Max El.
End time (UTC)
End Az.
5 mins2025-07-02 17:10:27.981Z246.199° WSW2025-07-02 17:12:27.981Z295.001° NW40.465°2025-07-02 17:15:27.981Z41.08° NE
4 mins2025-07-02 22:07:27.981Z342.664° N2025-07-02 22:09:27.981Z21.661° NNE19.047°2025-07-02 22:11:27.981Z62.524° ENE
5 mins2025-07-02 23:45:27.981Z304.357° NW2025-07-02 23:47:27.981Z270.822° WNW42.571°2025-07-02 23:50:27.981Z138.896° SSE
|